TimeEST,TemperatureF,Dew PointF,Humidity,Sea Level PressureIn,VisibilityMPH,Wind Direction,Wind SpeedMPH,Gust SpeedMPH,PrecipitationIn,Events,Conditions,WindDirDegrees,DateUTC
12:53 AM,25.0,19.9,81,30.11,10.0,WNW,15.0,-,N/A,,Overcast,290,2012-12-22 05:53:00
1:53 AM,26.1,19.9,78,30.12,10.0,WNW,15.0,-,N/A,,Overcast,290,2012-12-22 06:53:00
2:53 AM,25.0,19.9,81,30.15,10.0,West,17.3,23.0,N/A,,Overcast,280,2012-12-22 07:53:00
4:53 AM,25.0,19.0,78,30.15,10.0,West,13.8,-,N/A,,Overcast,280,2012-12-22 09:53:00
5:53 AM,24.1,19.0,81,30.17,10.0,North,-9999.0,-,N/A,,Overcast,0,2012-12-22 10:53:00
6:53 AM,24.1,19.0,81,30.18,10.0,North,-9999.0,-,N/A,,Overcast,0,2012-12-22 11:53:00
7:53 AM,23.0,18.0,81,30.21,10.0,WSW,12.7,-,N/A,,Overcast,250,2012-12-22 12:53:00
8:53 AM,21.9,17.1,82,30.23,9.0,West,11.5,-,N/A,,Overcast,260,2012-12-22 13:53:00
9:53 AM,21.9,18.0,85,30.25,10.0,West,10.4,-,N/A,,Overcast,260,2012-12-22 14:53:00
10:04 AM,21.2,17.6,86,30.22,10.0,West,9.2,-,N/A,,Overcast,270,2012-12-22 15:04:00
10:53 AM,21.0,16.0,81,30.25,9.0,WSW,8.1,-,N/A,,Overcast,250,2012-12-22 15:53:00
11:14 AM,21.2,17.6,86,30.22,10.0,WSW,9.2,-,N/A,,Overcast,250,2012-12-22 16:14:00
11:39 AM,21.2,15.8,80,30.21,10.0,WSW,10.4,-,N/A,,Scattered Clouds,250,2012-12-22 16:39:00
11:53 AM,23.0,16.0,74,30.22,10.0,West,9.2,-,N/A,,Clear,270,2012-12-22 16:53:00
12:53 PM,25.0,17.1,72,30.21,10.0,West,11.5,-,N/A,,Clear,270,2012-12-22 17:53:00
1:53 PM,26.1,17.1,69,30.18,10.0,West,10.4,-,N/A,,Clear,260,2012-12-22 18:53:00
2:53 PM,28.0,17.1,63,30.16,10.0,WSW,10.4,-,N/A,,Clear,250,2012-12-22 19:53:00
3:53 PM,30.0,18.0,61,30.15,10.0,SW,8.1,-,N/A,,Clear,220,2012-12-22 20:53:00
4:53 PM,28.9,18.0,64,30.14,10.0,SW,6.9,-,N/A,,Clear,220,2012-12-22 21:53:00
5:53 PM,27.0,18.0,69,30.13,10.0,SSW,6.9,-,N/A,,Clear,210,2012-12-22 22:53:00
6:53 PM,26.1,18.0,71,30.12,10.0,SSW,5.8,-,N/A,,Clear,200,2012-12-22 23:53:00
7:53 PM,25.0,18.0,75,30.11,10.0,South,6.9,-,N/A,,Clear,190,2012-12-23 00:53:00
8:53 PM,25.0,18.0,75,30.10,10.0,South,3.5,-,N/A,,Clear,180,2012-12-23 01:53:00
9:53 PM,25.0,18.0,75,30.09,10.0,SSW,4.6,-,N/A,,Clear,200,2012-12-23 02:53:00
10:53 PM,26.1,18.0,71,30.07,10.0,South,8.1,-,N/A,,Clear,190,2012-12-23 03:53:00
11:53 PM,26.1,18.0,71,30.05,10.0,South,8.1,-,N/A,,Clear,190,2012-12-23 04:53:00